カタログに戻る

STARLINK-11163

運用中通信VLEO
NORAD 60047·PAYLOAD·🇺🇸 United States

打ち上げ Jun 8, 2024 から Vandenberg Space Force Base

Loading…

次のパス (今後24時間)

TLE

最新Source: CelesTrak SupGP

元期: Sep 14, 2026, 22:13 UTC

1 60047C 24112K   26257.92618056  .00090912  00000+0  75041-3 0  2573
2 60047  53.1571  53.2206 0001069  81.5743 335.7025 15.69614536    15

AllMySatでSTARLINK-11163をリアルタイム追跡

Download on the App Store